Showing default

EAGLEEYE, 60508

Orbit data source: Space-Track

EAGLEEYE, 60508 is a Polish payload satellite in SSO that was launched on Fri, 16 Aug 2024 UTC via an FALCON 9 launch vehicle from the Air Force Western Test Range (AFWTR). Payload-class satellites include a variety of spacecraft equipped with specific instruments for various scientific and technological missions. These include communications satellites like Starlink; space stations such as the ISS; scientific satellites like the Hubble; Earth observation satellites from companies like Planet Labs, Umbra, and HawkEye 360; GPS; miniature CubeSats for education and research; and military/defense satellites.

Loading next visibility...
Identifier
60508, 2024-149AS
Orbit
SSO
Country
Flag of PLPL / POL
Related business
Manufacturer
CREO
Mission
Operational Commercial Imaging
Bus & Motor
HYPERSAT, Unknown motor
Mass
55 kg wet, 55 kg dry
Launch date (UTC)
2024-08-16 (1 year ago)
Launch vehicle
FALCON 9
Launch site
Air Force Western Test Range (AFWTR)
Object type
Payload
Rocket body
Debris
Shape & HBR
Box + 2 Pan, 0.8 m
Radar Cross Section
0.714 m², Medium (>0.1 m² and < 1m²)

Expand to show TLE details & history
Last TLE update: 15 hours ago

TLE from 15 hours ago
0 EAGLEEYE
1 60508U 24149AS  26034.46164613  .00056674  00000-0  92477-3 0  9995
2 60508  97.3836 122.3854 0003301  40.6387 319.5111 15.52404906 82071
Epoch: 2026-02-03T11:04Z
TLE epoch observation values (Epoch: 2026-02-03T11:04:46.225Z)
Latitude
-0.00009°
Longitude
-177.44943°
Altitude
411.137 km
Speed
7.665 km/s
True Right ascension
08h 09m 32s
True Declination
0° 00' 00"
Sunlit
Object was in full shadow at epoch
Visualization orbit readout
Latitude
Unknown
Longitude
Unknown
Altitude
Unknown
Speed
Unknown
Apparent Right ascension
Unknown
Apparent Declination
Unknown
Sunlit
N/A
Visualization observer readout
Local Sidereal Time
03:38:36
Azimuth
Unknown
Elevation
Unknown
Doppler factor
Unknown
Orbital elements
Apogee altitude
408.868 km
Perigee altitude
404.389 km
Semi-major axis
6,784.766 km
Eccentricity
0.00033
Inclination
97.3836°
RAAN
122.3854°
Arg. of periapsis
40.6387°
True anomaly
319.48653°
Mean anomaly
319.5111°
Eccentric anomaly
319.49882°
Mean motion
3.88366 °/min
Orbital period
92.7 mins
BSTAR
0.00092477
Loading maneuver chart data...
Computing Atmospheric mass density...
Loading historical data...
Loading historical data...
Loading historical data...
Loading historical data...
Loading historical data...
Loading historical data...
Loading historical data...

Documentation

Showing up to 5 results
|